TimeEDT,TemperatureF,Dew PointF,Humidity,Sea Level PressureIn,VisibilityMPH,Wind Direction,Wind SpeedMPH,Gust SpeedMPH,PrecipitationIn,Events,Conditions,WindDirDegrees,DateUTC
12:15 AM,45.5,36.0,69,29.73,10.0,West,10.4,18.4,N/A,,Mostly Cloudy,270,2012-10-10 04:15:00
12:35 AM,45.5,36.3,70,29.72,10.0,West,12.7,18.4,N/A,,Scattered Clouds,260,2012-10-10 04:35:00
12:55 AM,45.5,35.6,68,29.72,10.0,West,11.5,17.3,N/A,,Mostly Cloudy,270,2012-10-10 04:55:00
1:15 AM,45.5,35.4,68,29.72,10.0,West,10.4,16.1,N/A,,Mostly Cloudy,280,2012-10-10 05:15:00
1:35 AM,45.5,34.3,65,29.72,10.0,West,13.8,19.6,N/A,,Mostly Cloudy,270,2012-10-10 05:35:00
1:55 AM,45.5,33.6,63,29.72,10.0,West,12.7,19.6,N/A,,Overcast,270,2012-10-10 05:55:00
2:15 AM,45.5,34.5,65,29.72,10.0,West,10.4,17.3,N/A,,Overcast,270,2012-10-10 06:15:00
2:35 AM,44.8,34.9,68,29.72,10.0,West,12.7,18.4,N/A,,Mostly Cloudy,270,2012-10-10 06:35:00
2:55 AM,44.6,34.9,69,29.72,10.0,West,13.8,20.7,N/A,,Mostly Cloudy,260,2012-10-10 06:55:00
3:15 AM,44.1,35.6,72,29.72,10.0,West,10.4,19.6,N/A,,Mostly Cloudy,270,2012-10-10 07:15:00
3:35 AM,43.2,34.7,72,29.72,10.0,West,10.4,20.7,N/A,,Scattered Clouds,280,2012-10-10 07:35:00
3:55 AM,43.0,35.2,74,29.72,10.0,West,12.7,16.1,N/A,,Scattered Clouds,280,2012-10-10 07:55:00
4:15 AM,43.0,35.1,74,29.72,10.0,West,11.5,20.7,N/A,,Mostly Cloudy,280,2012-10-10 08:15:00
4:35 AM,43.0,35.1,74,29.72,10.0,West,16.1,20.7,N/A,,Mostly Cloudy,280,2012-10-10 08:35:00
4:55 AM,43.0,35.4,75,29.73,10.0,West,11.5,20.7,N/A,,Overcast,270,2012-10-10 08:55:00
5:15 AM,42.3,34.7,75,29.73,10.0,West,12.7,23.0,N/A,,Mostly Cloudy,280,2012-10-10 09:15:00
5:35 AM,42.1,34.7,75,29.73,10.0,West,12.7,20.7,N/A,,Mostly Cloudy,270,2012-10-10 09:35:00
5:55 AM,41.9,34.2,74,29.73,10.0,West,10.4,19.6,N/A,,Mostly Cloudy,280,2012-10-10 09:55:00
6:15 AM,41.2,33.1,73,29.74,10.0,West,11.5,20.7,N/A,,Scattered Clouds,280,2012-10-10 10:15:00
6:35 AM,41.2,33.3,73,29.75,10.0,West,12.7,18.4,N/A,,Scattered Clouds,280,2012-10-10 10:35:00
6:55 AM,41.0,33.1,73,29.76,10.0,WNW,13.8,23.0,N/A,,Mostly Cloudy,290,2012-10-10 10:55:00
7:15 AM,40.8,32.9,73,29.76,10.0,West,12.7,19.6,N/A,,Mostly Cloudy,280,2012-10-10 11:15:00
7:35 AM,40.1,32.7,75,29.76,10.0,West,11.5,20.7,N/A,,Mostly Cloudy,280,2012-10-10 11:35:00
7:55 AM,40.3,32.4,73,29.77,10.0,West,16.1,21.9,N/A,,Mostly Cloudy,280,2012-10-10 11:55:00
8:15 AM,40.3,32.7,74,29.77,10.0,WNW,11.5,18.4,N/A,,Mostly Cloudy,290,2012-10-10 12:15:00
8:55 AM,41.2,33.3,73,29.79,10.0,West,15.0,21.9,N/A,,Overcast,280,2012-10-10 12:55:00
9:35 AM,41.5,33.4,73,29.80,10.0,West,11.5,19.6,N/A,,Overcast,280,2012-10-10 13:35:00
9:55 AM,41.5,32.9,71,29.81,10.0,West,12.7,26.5,N/A,,Overcast,280,2012-10-10 13:55:00
10:15 AM,41.2,32.9,72,29.82,10.0,West,16.1,24.2,N/A,,Overcast,280,2012-10-10 14:15:00
10:35 AM,41.5,33.1,72,29.82,10.0,West,13.8,23.0,N/A,,Overcast,270,2012-10-10 14:35:00
10:55 AM,42.4,33.4,70,29.82,10.0,West,15.0,23.0,N/A,,Overcast,270,2012-10-10 14:55:00
11:15 AM,42.3,33.6,71,29.83,10.0,West,11.5,19.6,N/A,,Overcast,280,2012-10-10 15:15:00
11:35 AM,42.4,33.4,70,29.83,10.0,West,12.7,18.4,N/A,,Overcast,280,2012-10-10 15:35:00
11:55 AM,42.6,33.3,69,29.83,10.0,WNW,13.8,21.9,N/A,,Overcast,290,2012-10-10 15:55:00
12:15 PM,43.7,33.4,67,29.84,10.0,West,15.0,24.2,N/A,,Overcast,270,2012-10-10 16:15:00
12:55 PM,43.2,32.9,67,29.86,10.0,West,13.8,21.9,N/A,,Overcast,280,2012-10-10 16:55:00
1:15 PM,43.7,33.3,67,29.86,10.0,WNW,10.4,-,N/A,,Overcast,290,2012-10-10 17:15:00
1:35 PM,43.7,32.9,66,29.86,10.0,West,17.3,24.2,N/A,,Overcast,280,2012-10-10 17:35:00
1:55 PM,43.7,32.5,65,29.87,10.0,West,15.0,20.7,N/A,,Overcast,280,2012-10-10 17:55:00
2:15 PM,43.2,32.7,67,29.87,10.0,West,12.7,25.3,N/A,,Overcast,280,2012-10-10 18:15:00
2:36 PM,43.2,33.1,68,29.87,10.0,WNW,12.7,19.6,N/A,,Overcast,290,2012-10-10 18:36:00
2:55 PM,43.0,33.1,68,29.88,10.0,West,13.8,20.7,N/A,Rain,Light Rain,270,2012-10-10 18:55:00
3:15 PM,42.8,33.4,70,29.88,7.0,WNW,12.7,17.3,N/A,,Drizzle,290,2012-10-10 19:15:00
3:35 PM,41.4,33.4,73,29.89,5.0,West,11.5,19.6,N/A,Rain,Light Rain,280,2012-10-10 19:35:00
3:55 PM,40.6,33.8,77,29.90,7.0,WNW,9.2,20.7,N/A,Rain,Rain,300,2012-10-10 19:55:00
4:15 PM,39.2,34.7,84,29.91,4.0,WNW,10.4,20.7,N/A,Rain,Light Rain,300,2012-10-10 20:15:00
4:35 PM,40.8,34.9,79,29.91,10.0,West,11.5,16.1,N/A,,Light Drizzle,270,2012-10-10 20:35:00
4:55 PM,42.1,32.0,67,29.91,10.0,West,11.5,23.0,N/A,,Overcast,280,2012-10-10 20:55:00
5:15 PM,42.1,32.4,68,29.91,10.0,West,10.4,21.9,N/A,Rain,Light Rain,270,2012-10-10 21:15:00
5:35 PM,42.8,29.7,60,29.92,10.0,West,15.0,20.7,N/A,,Overcast,280,2012-10-10 21:35:00
5:55 PM,42.8,28.0,56,29.94,10.0,West,13.8,25.3,N/A,,Overcast,280,2012-10-10 21:55:00
6:15 PM,42.8,25.7,51,29.94,10.0,WNW,13.8,25.3,N/A,,Overcast,290,2012-10-10 22:15:00
6:35 PM,42.8,26.8,53,29.95,10.0,WNW,13.8,20.7,N/A,,Overcast,290,2012-10-10 22:35:00
6:55 PM,42.4,26.4,53,29.96,10.0,West,16.1,26.5,N/A,,Overcast,280,2012-10-10 22:55:00
7:15 PM,41.9,26.4,54,29.98,10.0,West,18.4,24.2,N/A,,Overcast,280,2012-10-10 23:15:00
7:35 PM,41.9,24.8,51,29.98,10.0,West,13.8,23.0,N/A,,Overcast,280,2012-10-10 23:35:00
7:56 PM,41.0,22.8,48,30.00,10.0,West,15.0,23.0,N/A,,Mostly Cloudy,270,2012-10-10 23:56:00
8:15 PM,41.0,22.5,48,30.00,10.0,West,12.7,20.7,N/A,,Mostly Cloudy,280,2012-10-11 00:15:00
8:35 PM,40.5,22.8,49,30.01,10.0,West,12.7,20.7,N/A,,Mostly Cloudy,280,2012-10-11 00:35:00
8:55 PM,39.9,22.3,49,30.02,10.0,West,9.2,20.7,N/A,,Scattered Clouds,270,2012-10-11 00:55:00
9:15 PM,41.0,23.4,50,30.01,10.0,West,13.8,26.5,N/A,,Mostly Cloudy,280,2012-10-11 01:15:00
9:35 PM,41.0,23.5,50,30.02,10.0,West,10.4,20.7,N/A,,Overcast,280,2012-10-11 01:35:00
9:55 PM,41.5,22.8,47,30.02,10.0,West,12.7,27.6,N/A,,Overcast,270,2012-10-11 01:55:00
10:15 PM,41.5,23.5,49,30.02,10.0,West,15.0,20.7,N/A,,Mostly Cloudy,260,2012-10-11 02:15:00
10:35 PM,41.9,22.6,46,30.03,10.0,West,16.1,25.3,N/A,,Mostly Cloudy,280,2012-10-11 02:35:00
10:55 PM,42.3,23.5,48,30.03,10.0,West,19.6,27.6,N/A,,Overcast,260,2012-10-11 02:55:00
11:15 PM,42.3,24.4,49,30.03,10.0,West,9.2,18.4,N/A,,Mostly Cloudy,270,2012-10-11 03:15:00
11:35 PM,42.3,24.8,50,30.03,10.0,West,8.1,-,N/A,,Scattered Clouds,270,2012-10-11 03:35:00
11:55 PM,42.8,25.0,49,30.03,10.0,West,10.4,17.3,N/A,,Mostly Cloudy,270,2012-10-11 03:55:00